This demonstration page uses our WeatherBlox Daily Observations layout. Learn more.

Left ArrowRight Arrow

Hourly Observations for September 21, 2020

Temp ( °F °C ) Dew Point ( °F °C ) Humidity (%) Winds ( mph kmh ) Pressure ( in mb ) Visibility ( mi km ) Precip ( " mm )
12:59 am 00:59 Mostly Clear 61 16.1 47 8.3 60 60 NE 18 30 30.43 1031 10 16 0.00 0.00
1:59 am 01:59 Mostly Clear 62 16.7 47 8.3 58 58 NNE 18 30 30.42 1030 10 16 0.00 0.00
2:59 am 02:59 Mostly Clear 62 16.7 48 8.9 60 60 NNE 15 24 30.41 1030 10 16 0.00 0.00
3:59 am 03:59 Mostly Cloudy 63 17.2 49 9.4 60 60 NNE 15 24 30.40 1029 10 16 0.00 0.00
4:59 am 04:59 Mostly Cloudy 62 16.7 50 10 65 65 NNE 17 28 30.40 1029 10 16 0.00 0.00
5:59 am 05:59 Mostly Cloudy 63 17.2 49 9.4 60 60 NE 24 39 30.40 1030 10 16 0.00 0.00
6:59 am 06:59 Mostly Cloudy 63 17.2 48 8.9 58 58 NE 18 30 30.42 1030 10 16 0.00 0.00
7:59 am 07:59 Mostly Cloudy 62 16.7 46 7.8 56 56 NE 21 33 30.43 1030 10 16 0.00 0.00
8:59 am 08:59 Mostly Cloudy 63 17.2 46 7.8 54 54 NE 21 33 30.45 1031 10 16 0.00 0.00
9:59 am 09:59 Cloudy 66 18.9 48 8.9 52 52 NE 20 31 30.46 1032 10 16 0.00 0.00
10:59 am 10:59 Cloudy 64 17.8 48 8.9 56 56 NNE 14 22 30.47 1032 10 16 0.00 0.00
11:59 am 11:59 Cloudy 64 17.8 48 8.9 56 56 NNE 17 28 30.47 1032 10 16 0.00 0.00
12:59 pm 12:59 Cloudy 66 18.9 49 9.4 54 54 NNE 20 31 30.47 1032 10 16 0.00 0.00
1:59 pm 13:59 Cloudy 66 18.9 48 8.9 52 52 NE 18 30 30.45 1031 10 16 0.00 0.00
2:59 pm 14:59 Cloudy 67 19.4 46 7.8 47 47 NE 21 33 30.42 1030 10 16 0.00 0.00
3:59 pm 15:59 Mostly Cloudy 67 19.4 48 8.9 51 51 NNE 17 28 30.42 1030 10 16 0.00 0.00
4:59 pm 16:59 Cloudy 66 18.9 45 7.2 47 47 NNE 17 28 30.40 1029 10 16 0.00 0.00
5:59 pm 17:59 Mostly Cloudy 65 18.3 47 8.3 52 52 NE 18 30 30.39 1029 10 16 0.00 0.00
6:59 pm 18:59 Mostly Cloudy 64 17.8 46 7.8 52 52 NE 10 17 30.39 1029 10 16 0.00 0.00
7:59 pm 19:59 Mostly Cloudy 64 17.8 45 7.2 50 50 NE 12 19 30.38 1029 10 16 0.00 0.00
8:59 pm 20:59 Mostly Cloudy 63 17.2 45 7.2 52 52 NNE 15 24 30.37 1029 10 16 0.00 0.00
9:59 pm 21:59 Mostly Cloudy 62 16.7 46 7.8 56 56 NNE 16 26 30.36 1028 10 16 0.00 0.00
10:59 pm 22:59 Mostly Cloudy 62 16.7 46 7.8 56 56 NNE 16 26 30.35 1028 10 16 0.00 0.00
11:59 pm 23:59 Mostly Cloudy 62 16.7 45 7.2 54 54 NNE 15 24 30.33 1027 10 16 0.00 0.00

Powered by AerisWeather